Weather History for Tetuan, Morocco

Change the Weather History Date:

Monday, October 28, 2013

  Actual Average Record
Temperature  
Mean Temperature 66 °F -  
Max Temperature 75 °F 66 °F 76 °F (2012)
Min Temperature 56 °F 55 °F 51 °F (2010)
Growing Degree Days 16 (Base 50)    
Moisture  
Dew Point 60 °F    
Average Humidity 77    
Maximum Humidity 100    
Minimum Humidity 52    
Precipitation  
Precipitation 0.00 in - - ()
Sea Level Pressure  
Sea Level Pressure 30.07 in    
Wind  
Wind Speed 3 mph ()    
Max Wind Speed 17 mph    
Max Gust Speed -    
Visibility 4.5 miles    
Events      
Averages and records for this station are not official NWS values.
T = Trace of Precipitation, MM = Missing Value Source: Averaged Metar Reports

Daily Weather History Graph

Daily Weather History Graph

Search for Another Location

Airport:

Trip Planner

Search our weather history database for the weather conditions in past years. The results will help you decide how hot, cold, wet, or windy it might be!

Date:

Astronomy

Oct. 28, 2013 Rise Set
Actual Time 6:39 AM WET 5:30 PM WET
Civil Twilight 6:13 AM WET 5:56 PM WET
Nautical Twilight 5:43 AM WET 6:26 PM WET
Astronomical Twilight 5:13 AM WET 6:56 PM WET
Moon 12:31 AM WET (10/28) 1:53 PM WET (10/28)
Length of Visible Light 11h 43m
Length of Day
10h 50m
Waning Crescent, 36% of the Moon is Illuminated
Oct 28
Waning Crescent
Nov 3
New
Nov 10
First Quarter
Nov 17
Full
Nov 25
Last Quarter

Hourly Weather History & Observations

Time (WET) Temp. Dew Point Humidity Pressure Visibility Wind Dir Wind Speed Gust Speed Precip Events Conditions
12:00 AM 62 °F 60 °F 90% 30.16 in - NNW 3.5 mph - -  
12:00 AM 62.6 °F 59.0 °F 88% 30.15 in - NNW 3.5 mph - N/A   Unknown
1:00 AM 62.6 °F 59.0 °F 88% 30.12 in - NNW 3.5 mph - N/A   Unknown
2:00 AM 62.6 °F 60.8 °F 94% 30.12 in - Calm Calm - N/A   Unknown
3:00 AM 60 °F 58 °F 90% 30.11 in - Calm Calm - -  
3:00 AM 59.0 °F 57.2 °F 94% 30.09 in - Calm Calm - N/A   Unknown
4:00 AM 57.2 °F 55.4 °F 94% 30.09 in - Variable 2.3 mph - N/A   Unknown
5:00 AM 59.0 °F 57.2 °F 94% 30.06 in - North 1.2 mph - N/A   Unknown
6:00 AM 57 °F 56 °F 95% 30.09 in 2 mi NNW 1.2 mph - -   Mist
6:00 AM 57.2 °F 55.4 °F 94% 30.06 in 2.5 mi NNW 1.2 mph - N/A   Scattered Clouds
7:00 AM 60.8 °F 59.0 °F 94% 30.06 in 2.5 mi Variable 2.3 mph - N/A   Mostly Cloudy
8:00 AM 62.6 °F 62.6 °F 100% 30.09 in 3.7 mi West 1.2 mph - N/A   Mostly Cloudy
9:00 AM 66 °F 64 °F 93% 30.12 in 4 mi SW 1.2 mph - -   Partly Cloudy
9:00 AM 66.2 °F 64.4 °F 94% 30.09 in 3.7 mi Variable 1.2 mph - N/A   Scattered Clouds
10:00 AM 71.6 °F 62.6 °F 73% 30.09 in 6.2 mi Variable 2.3 mph - N/A   Scattered Clouds
11:00 AM 73.4 °F 62.6 °F 69% 30.09 in 5.0 mi East 4.6 mph - N/A   Scattered Clouds
12:00 PM 75 °F 62 °F 54% 30.08 in 6 mi East 4.6 mph - -   Scattered Clouds
12:00 PM 75.2 °F 62.6 °F 65% 30.06 in 6.2 mi East 4.6 mph - N/A   Scattered Clouds
1:00 PM 73.4 °F 62.6 °F 69% 30.04 in - East 5.8 mph - N/A   Clear
2:00 PM 75.2 °F 62.6 °F 65% 30.01 in - East 5.8 mph - N/A   Clear
3:00 PM 74 °F 63 °F 61% 30.04 in 6 mi ENE 6.9 mph - -   Clear
3:00 PM 73.4 °F 62.6 °F 69% 30.04 in - ENE 6.9 mph - N/A   Clear
4:00 PM 73.4 °F 62.6 °F 69% 30.04 in - ESE 5.8 mph - N/A   Clear
5:00 PM 73.4 °F 62.6 °F 69% 30.04 in - Calm Calm - N/A   Clear
6:00 PM 71.6 °F 60.8 °F 69% 30.04 in - Variable 2.3 mph - N/A   Clear
7:00 PM 75.2 °F 59.0 °F 57% 30.04 in - West 10.4 mph - N/A   Clear
8:00 PM 73.4 °F 59.0 °F 61% 30.01 in - SSW 8.1 mph - N/A   Clear
9:00 PM 73 °F 59 °F 52% 30.03 in 6 mi WSW 8.1 mph - -   Mostly Cloudy
9:00 PM 73.4 °F 59.0 °F 61% 30.01 in - WSW 8.1 mph - N/A   Clear
10:00 PM 68.0 °F 59.0 °F 73% 30.04 in - NNE 4.6 mph - N/A   Clear
11:00 PM 69.8 °F 57.2 °F 64% 30.04 in - SW 17.3 mph - N/A   Unknown